STARLINK-11283 [DTC]

Last updated on Sun Oct 06 2024 00:02:04 GMT+0000 (Coordinated Universal Time)

1 60993U 24158D 24279.42931639 .00011296 00000+0 72819-4 0 9997 2 60993 53.1573 326.5653 0001120 120.0069 240.1063 15.76762050 5870

Satellite not in orbit

STARLINK-11283 [DTC]